This demonstration page uses our WeatherBlox Daily Observations layout. Learn more.

Left ArrowRight Arrow

Hourly Observations for November 30, 2019

Temp ( °F °C ) Dew Point ( °F °C ) Humidity (%) Winds ( mph kmh ) Pressure ( in mb ) Visibility ( mi km ) Precip ( " mm )
12:12 am 00:12 Cloudy with Light Wintry Mix 34 1 34 1 100 100 ESE 16 26 29.64 1004 2 2 0.00 0.00
12:23 am 00:23 Cloudy with Light Wintry Mix 34 1 34 1 100 100 ESE 21 33 29.62 1003 1 2 0.00 0.00
12:56 am 00:56 Cloudy with Light Wintry Mix 34 1.1 34 1.1 100 100 ESE 18 30 29.55 1001 1 2 0.00 0.00
1:56 am 01:56 Cloudy with Light Rain 35 1.7 35 1.7 100 100 SE 20 31 29.50 999 1 2 0.00 0.00
2:56 am 02:56 Cloudy with Light Rain 36 2.2 36 2.2 100 100 SSE 21 33 29.45 997 1 1 0.00 0.00
3:31 am 03:31 Cloudy with Light Rain 37 3 36 2 93 93 SSE 20 31 29.45 997 1 2 0.00 0.00
3:49 am 03:49 Cloudy with Light Rain 37 3 37 3 100 100 SSE 23 37 29.43 997 2 3 0.00 0.00
3:56 am 03:56 Cloudy with Mist and Fog 37 2.8 37 2.8 100 100 SSE 23 37 29.40 996 3 4 0.00 0.00
4:12 am 04:12 Cloudy with Mist and Fog 37 3 36 2 93 93 SSE 21 33 29.41 996 4 6 0.00 0.00
4:34 am 04:34 Partly Cloudy 37 3 36 2 93 93 S 18 30 29.39 995 10 16 0.00 0.00
4:56 am 04:56 Partly Cloudy 37 2.8 37 2.8 100 100 S 24 39 29.34 994 10 16 0.00 0.00
5:56 am 05:56 Mostly Clear 38 3.3 33 0.6 83 83 SSW 23 37 29.31 993 10 16 0.00 0.00
6:56 am 06:56 Clear 37 2.8 31 -0.6 79 79 SSW 20 31 29.30 992 10 16 0.00 0.00
7:56 am 07:56 Mostly Sunny 36 2.2 29 -1.7 76 76 SSW 23 37 29.28 992 10 16 0.00 0.00
8:56 am 08:56 Mostly Sunny 38 3.3 29 -1.7 70 70 SW 24 39 29.27 991 10 16 0.00 0.00
9:53 am 09:53 Mostly Cloudy 37 3 30 -1 75 75 WSW 17 28 29.30 992 10 16 0.00 0.00
12:15 pm 12:15 Mostly Cloudy 36 2 28 -2 75 75 WNW 26 43 29.33 993 10 16 0.00 0.00
12:53 pm 12:53 Cloudy with Light Rain 36 2 28 -2 75 75 WNW 29 46 29.35 994 10 16 0.00 0.00
12:56 pm 12:56 Cloudy with Light Rain 35 1.7 28 -2.2 76 76 WNW 29 46 29.31 993 10 16 0.00 0.00
1:56 pm 13:56 Cloudy with Light Rain 34 1.1 27 -2.8 76 76 W 31 50 29.33 993 10 16 0.00 0.00
2:56 pm 14:56 Cloudy with Light Rain 33 0.6 27 -2.8 78 78 WNW 30 48 29.36 994 10 16 0.00 0.00
3:56 pm 15:56 Windy with Snow Likely 31 -0.6 26 -3.3 82 82 WNW 35 56 29.40 996 6 10 0.00 0.00
4:56 pm 16:56 Windy with Snow Likely 30 -1.1 26 -3.3 85 85 WNW 30 48 29.42 996 4 6 0.00 0.00
5:27 pm 17:27 Windy with Snow Likely 30 -1 27 -3 86 86 WNW 32 52 29.50 999 3 4 0.00 0.00
5:36 pm 17:36 Windy with Snow Likely 30 -1 27 -3 86 86 WNW 32 52 29.50 999 6 10 0.00 0.00
5:56 pm 17:56 Cloudy with Light Wintry Mix 30 -1.1 25 -3.9 82 82 WNW 37 59 29.44 997 10 16 0.00 0.00
6:56 pm 18:56 Windy with Snow Likely 30 -1.1 24 -4.4 79 79 NW 35 56 29.47 998 10 16 0.00 0.00
7:56 pm 19:56 Cloudy with Light Wintry Mix 30 -1.1 24 -4.4 79 79 NW 36 57 29.51 999 10 16 0.00 0.00
8:56 pm 20:56 Cloudy 30 -1.1 23 -5 75 75 NW 36 57 29.56 1001 10 16 0.00 0.00
9:56 pm 21:56 Cloudy 30 -1.1 23 -5 75 75 NW 32 52 29.62 1003 10 16 0.00 0.00
10:56 pm 22:56 Cloudy 30 -1.1 23 -5 75 75 NW 32 52 29.67 1005 10 16 0.00 0.00
11:56 pm 23:56 Cloudy 30 -1.1 23 -5 75 75 NNW 30 48 29.72 1006 10 16 0.00 0.00

Powered by AerisWeather